Weather in Krymsk

Russia / Krasnodar Krai     44°56′05″N   37°59′10″E
temp.,
°C
wind,
m/s
gust,
m/s
humid.,
%
clouds,
%
prec.,
mm/h
press.,
hPa
HPBL,
m
17 october, sun
sun1700:00+14nnw0165100 0.0 101411
03:00+13w117251 0.0 101410
06:00+12wnw017898 0.0 101410
09:00+15n1169100 0.0 1014148
12:00+20w0155100 0.0 1014600
15:00+21nw344598 0.0 10131101
18:00+16nw475999 0.0 1014185
21:00+13wnw226541 0.0 101529
18 october, mon
mon1800:00+12w226667 0.0 101514
03:00+11wnw226767 0.0 101518
06:00+11wsw227056 0.0 101610
09:00+15nnw225875 0.0 1017243
12:00+16n224821 0.0 1017235
15:00+17nw2444100 0.0 1016113
18:00+13nw476376 0.0 1018158
21:00+11wnw247871 0.0 1019111
19 october, tue
tue1900:00+11w237598 0.0 101977
03:00+12w247093 0.0 101997
06:00+10w348283 0.0 102060
09:00+13w4761100 0.0 1020609
12:00+16wnw68426 0.0 10201663
15:00+15w7135297 0.0 10191999
18:00+11wnw71189100 4.1 1018962
21:00+9w612663 5.2 1019479
20 october, wed
wed2000:00+8nw2484100 0.1 1021141
03:00+9nnw3776100 0.4 1023447
06:00+9nnw266689 0.3 1025281
09:00+9nw575610 0.4 10271279
12:00+10nw575391 0.1 10281526
15:00+10nw56455 0.1 10281623
18:00+7nw35635 0.0 1030102
21:00+5nnw11715 0.0 103011
21 october, thu
thu2100:00+4sse11755 0.0 103010
03:00+3se22785 0.0 102912
06:00+3se117955 0.0 102910
09:00+6se23635 0.0 1029223
12:00+12se223827 0.0 1027710
15:00+14ssw12285 0.0 10251041
18:00+10ssw224811 0.0 102514
21:00+7ssw22715 0.0 102415